Location: LDNL
(36.4545°S, 141.6685°E)
Time: 17:05:49
(UTC+10:00)

Courier 1B - Pass Details

Date: 08 August 2022
Orbit: 962 x 1209 km, 28.3° (Epoch: 25 September)

Event Time Altitude Azimuth Distance (km) Brightness Sun altitude
Exits shadow 05:07:55 37° 331° (NNW) 1,721 8.5 -27.7°
Maximum altitude 05:08:50 39° 347° (NNW) 1,679 8.5 -27.6°
Drops below altitude 10° 05:15:36 10° 52° (NE) 2,984 10.7 -26.2°
Sets 05:18:29 0° 60° (ENE) 3,901 11.6 -25.6°
